SCP
-0 -0 -0 -0 0 0 0 0 0 0 0 0 0 0 0 0 0 0 0 0 0 0 0 0 0 0 0 0 0 0 0 0 0 0 0 0 0 0 0 0 0 0 0 0
-0 0 0 0 0 0 0 0 0 0 0 0 0 0 0 0 0 0 0 0 0 0 0 0 0 0 0 0 0 0 0 0 0 0 0 0 0 0 0 0 0 0 0 0
0 0 0 0 0 0 0 0 0 0 0 0 0 0 0 0 0 0 0 0 0 0 0 0 0 0 0 0 0 0 0 0 0 0 0 0 0 0 0 0 0 0 0 0
0 0 0 0 0 0 0 0 0 0 0 0 0 0 0 0 0 0 0 0 0 0 0 0 0 0 0 0 0 0 0 0 0 0 0 0 0 0 0 0 0 0 0 0
0 0 0 0 0 0 0 0 0 0 0 0 0 0 0 0 0 0 0 0 0 0 0 0 0 0 0 0 0 0 0 0 0 0 0 0 0 0 0 0 0 0 0 0
0 -0 0 0 0 0 0 0 0 0 0 0 0 0 -0 0 0 0 0 0 0 0 0 0 0 0 0 0 0 0 0 0 0 0 0 0 0 0 0 0 0 0 0 0
0 -0 -0 -0 0 0 0 0 0 0 -0 0 -0 -0 -0 -0 -0 -0 0 0 0 0 0 -0 0 0 0 0 0 0 0 0 0 0 0 0 0 0 0 0 0 0 0 0
-0 0 -0 -0 -0 0 0 0 0 0 -0 -0 -0 -0 -0 -0 -0 -0 -0 -0 0 -0 0 0 0 0 0 0 0 0 0 0 0 0 0 0 0 0 0 0 0 0 0 0
-0 -0 0 0 -0 -0 -0 0 0 0 0 0 0 0 0 0 -0 -0 -0 0 -0 -0 0 0 0 0 0 0 0 0 0 0 0 0 0 0 0 0 0 0 0 0 0 0
-0 -0 -0 -0 -0 -0 -0 0 0 0 0 0 0 0 -0 -0 -0 -0 0 0 -0 -0 -0 -0 -0 0 0 0 0 0 0 0 0 0 0 0 0 0 0 0 0 0 0 0
-0 -0 -0 -0 -0 -0 -0 -0 0 0 -0 0 0 0 0 0 0 -0 0 0 0 0 0 0 0 0 -0 -0 0 0 0 0 0 0 0 0 0 0 0 0 0 0 0 0
-0 -0 -0 -0 -0 -0 -0 -0 -0 -0 -0 -0 -0 -0 -0 -0 0 0 0 0 0 0 -0 0 -0 -0 -0 -0 0 -0 -0 0 0 0 0 0 0 0 0 0 0 -0 -0 0
-0 -0 -0 -0 -0 -0 -0 -0 -0 -0 -0 -0 0 0 -0 -0 -0 -0 0 0 0 0 0 0 0 0 -0 -0 -0 0 0 0 -0 0 0 0 -0 -0 -0 -0 0 0 0 0
-0 -0 -0 -0 -0 -0 -0 -0 -0 -0 0 0 0 0 0 0 -0 -0 -0 -0 0 0 0 0 0 0 0 0 0 0 0 -0 0 0 -0 -0 -0 -0 -0 -0 0 0 0 0
-0 -0 0 -0 -0 0 -0 -0 -0 0 0 0 0 -0 0 -0 -0 0 0 0 0 0 0 0 0 0 0 0 0 -0 0 -0 -0 -0 -0 -0 0 0 -0 -0 -0 0 0 0
0 0 -0 -0 -0 0 -0 -0 -0 0 -0 -0 0 -0 -0 0 0 0 0 0 0 0 0 0 0 0 0 -0 0 -0 0 -0 -0 -0 0 0 -0 -0 0 0 0 0 0 0
-0 -0 -0 -0 -0 -0 0 0 -0 0 -0 -0 -0 -0 -0 0 0 0 0 0 0 0 0 0 0 0 0 0 0 0 0 0 0 0 0 0 0 0 0 0 0 0 0 0
0 -0 -0 -0 -0 -0 0 -0 -0 -0 -0 0 -0 0 -0 0 -0 -0 -0 -0 0 0 0 0 0 0 0 0 0 0 0 0 0 0 0 0 0 0 0 0 0 0 0 0
0 0 -0 0 0 0 0 0 0 0 0 0 0 -0 -0 0 0 0 0 0 0 0 0 0 0 0 0 0 0 0 0 0 0 0 0 0 0 0 0 0 0 0 0 0
0 0 0 0 0 0 0 0 0 0 0 0 0 0 0 0 0 0 0 0 0 0 0 0 0 0 0 0 0 0 0 0 0 0 0 0 0 0 0 0 0 0 0 0
0 0 0 0 0 0 0 0 0 0 0 0 0 0 0 0 0 0 0 0 0 0 0 0 0 0 0 0 0 0 0 0 0 0 0 0 0 0 0 0 0 0 0 0
0 0 0 0 0 0 0 0 0 0 0 0 0 0 0 0 0 0 0 0 0 0 0 0 0 0 0 0 0 0 0 0 0 0 0 0 0 0 0 0 0 0 0 0
0 0 0 0 0 0 0 0 0 0 0 0 0 0 0 0 0 0 0 0 0 0 0 0 0 0 0 0 0 0 0 0 0 0 0 0 0 0 0 0 0 0 0 0
0 0 0 0 0 0 0 0 0 0 0 0 0 0 0 0 0 0 0 0 0 0 0 0 0 0 0 0 0 0 0 0 0 0 0 0 0 0 0 0 0 0 0 0
0 0 0 0 0 0 0 0 0 0 0 0 0 0 0 0 0 0 0 0 0 0 0 0 0 0 0 0 0 0 0 0 0 0 0 0 0 0 0 0 0 0 0 0
0 0 0 0 0 0 0 0 0 0 0 0 0 0 0 0 0 0 0 0 0 0 0 0 0 0 0 0 0 0 0 0 0 0 0 0 0 0 0 0 0 0 0 0
0 0 0 0 0 0 0 0 0 0 0 0 0 0 0 0 0 0 0 0 0 0 0 0 0 0 0 0 0 0 0 0 0 0 0 0 0 0 0 0 0 0 0 0
Wind_Speed_500mb
50 48 55 51 54 47 30 15 6 9 8 13 7 4 4 3 6 11 6 10 8 2 4 10 8 8 3 5 2 8 9 5 8 14 3 6 25 19 17 10 9 7 5 13
55 53 51 44 44 28 13 13 11 13 8 7 6 4 5 10 10 12 9 8 4 2 8 10 5 2 3 4 4 5 1 6 9 7 5 2 16 18 30 6 3 19 13 11
54 45 36 25 35 26 21 10 4 12 22 16 10 7 5 6 11 9 11 6 4 3 9 13 9 9 3 5 8 11 13 4 7 5 6 5 15 21 26 27 15 24 26 41
46 37 28 25 29 21 9 9 6 6 5 12 9 5 4 5 5 8 13 7 10 6 7 5 8 8 7 7 4 5 1 6 2 4 8 10 5 6 20 32 39 22 38 40
35 26 15 15 9 3 3 9 13 14 10 2 5 10 6 5 3 6 6 9 7 11 8 7 5 3 4 5 6 5 7 9 1 4 2 4 8 23 12 18 27 31 42 46
24 23 19 18 12 8 13 25 30 12 7 3 3 2 4 5 7 13 9 5 5 12 9 5 2 5 2 5 3 3 3 2 7 5 4 6 12 25 27 25 24 23 29 42
25 27 23 22 25 22 25 25 17 12 5 2 5 5 5 8 7 8 5 6 4 2 5 4 5 6 3 3 11 7 2 2 5 2 2 10 7 2 9 21 21 26 32 35
22 25 30 30 27 21 12 17 12 10 8 9 7 11 9 10 9 8 6 5 5 2 5 3 5 5 6 7 2 15 18 4 5 5 6 16 21 3 7 12 17 7 12 22
18 21 23 26 27 27 20 21 17 12 27 11 18 10 8 6 5 4 3 9 11 8 7 5 3 2 2 0 6 7 17 10 3 6 7 13 11 4 4 2 17 11 23 33
13 14 16 18 19 21 22 24 16 12 14 20 25 6 8 11 7 5 5 7 6 4 3 4 2 2 0 4 6 9 12 10 18 12 7 15 13 19 5 7 7 15 27 33
9 7 4 6 8 9 11 14 14 10 9 28 17 15 11 12 9 6 15 9 2 3 4 3 4 3 5 3 2 7 11 13 9 10 9 17 17 7 11 2 31 48 41 33
6 4 2 4 6 7 7 3 1 3 7 11 16 16 13 13 12 12 20 4 8 10 7 3 5 5 4 3 5 7 8 9 5 16 12 11 17 12 12 40 37 36 40 37
12 10 7 5 4 8 10 7 7 9 9 7 8 10 16 19 16 14 10 10 11 9 5 9 3 6 7 8 11 6 12 17 9 6 16 38 42 37 50 56 34 36 38 46
16 12 8 5 2 7 11 11 6 10 9 8 4 7 6 8 19 20 17 9 18 19 11 4 3 5 14 5 7 9 10 10 6 13 35 50 59 45 27 39 48 49 57 45
13 12 12 7 3 4 7 8 10 6 4 6 10 8 9 10 10 20 16 17 17 9 3 4 6 7 6 7 5 18 29 16 16 17 35 27 28 38 47 63 65 61 43 54
17 15 12 10 8 3 3 6 8 9 5 4 3 3 3 7 11 18 22 20 17 13 10 9 10 10 7 6 8 22 40 56 64 35 35 36 45 58 53 41 36 44 53 54
23 18 16 15 12 11 6 6 10 6 12 7 4 3 4 9 15 15 14 15 10 13 8 10 8 11 16 6 10 18 35 44 49 50 45 43 45 25 43 56 54 48 37 34
28 23 21 16 16 13 14 15 15 12 6 6 3 2 4 15 9 7 11 10 14 13 8 5 7 7 8 12 33 26 22 17 28 31 35 37 42 47 19 19 24 29 35 41
24 25 22 16 16 14 14 25 25 19 6 9 7 7 6 19 9 8 12 9 5 6 7 5 5 7 14 21 33 28 25 18 17 37 39 22 5 11 18 26 34 41 49 55
27 22 11 11 14 15 14 10 11 16 11 10 9 11 7 14 14 11 10 5 4 4 2 4 6 11 56 59 47 43 34 31 40 14 9 3 11 22 32 40 46 53 60 66
27 14 10 15 20 13 8 8 7 9 5 14 14 25 10 18 8 8 11 4 3 3 3 4 5 9 12 15 13 20 17 18 15 7 5 15 25 36 45 54 58 61 65 70
19 10 16 16 9 5 6 2 1 8 10 15 15 14 11 14 12 8 8 5 3 9 2 3 7 9 16 13 18 25 25 17 8 4 13 23 32 41 50 59 62 61 62 64
24 11 10 8 4 4 13 13 7 5 21 27 21 11 14 12 9 10 4 8 8 6 3 8 11 9 18 28 32 25 17 8 7 16 25 33 42 50 59 63 59 61 63 61
13 15 7 10 6 12 10 7 7 13 18 52 44 19 9 9 8 6 7 3 1 3 7 13 6 22 33 35 29 19 11 12 22 28 35 47 55 59 58 58 60 62 62 61
13 13 11 14 16 9 7 15 10 12 46 62 26 16 8 4 6 3 8 4 10 12 10 6 11 20 44 40 28 17 14 25 33 39 49 56 60 59 58 55 55 57 58 58
15 19 5 11 7 9 16 25 18 35 61 29 9 9 6 8 8 9 18 10 15 7 8 19 14 32 41 33 20 18 32 40 42 48 54 55 52 51 50 49 50 50 50 49
18 18 45 33 9 16 28 38 36 55 48 6 9 12 15 10 4 8 10 11 7 15 19 15 23 26 29 25 25 38 42 45 47 51 50 46 43 42 43 45 43 41 40 42
Wind_Direction_500mb
110 117 123 132 138 138 134 90 67 130 66 54 36 69 52 9 34 42 75 94 44 176 113 68 85 94 39 351 124 88 9 72 165 185 46 301 221 211 187 198 187 242 297 254
106 115 124 127 134 138 123 84 86 41 6 107 90 19 40 51 23 27 36 70 19 338 85 104 122 132 41 29 46 116 42 162 144 168 218 218 214 206 215 196 123 210 210 255
102 107 102 112 129 98 91 102 92 38 58 70 110 137 41 84 44 51 46 79 30 41 65 28 121 98 82 22 36 171 125 51 23 278 21 327 202 200 212 209 221 238 234 265
97 90 94 76 132 104 27 67 77 80 61 32 77 70 108 86 58 69 38 72 59 42 89 58 63 91 119 72 61 267 270 133 134 84 5 330 338 198 211 216 233 240 261 267
95 98 79 82 129 186 129 116 134 86 90 40 64 9 29 82 104 18 25 95 64 49 74 57 118 96 69 64 66 3 356 142 272 122 246 76 315 288 260 251 260 263 268 274
70 69 67 59 65 89 108 112 121 112 28 32 75 39 163 95 109 29 43 63 60 67 67 53 346 260 149 136 122 92 47 126 149 170 319 211 265 233 229 238 224 231 249 261
66 61 69 77 77 83 119 117 118 105 109 36 98 137 102 101 54 113 88 72 48 71 23 21 100 100 346 218 237 231 117 94 10 111 137 235 231 317 266 235 251 235 260 269
82 78 74 78 81 77 90 100 101 109 111 118 119 136 108 97 61 74 93 88 125 347 57 81 20 11 54 350 271 212 210 181 108 198 224 309 288 40 159 206 265 57 295 322
94 93 86 80 78 72 79 96 103 103 123 218 146 143 166 147 130 87 108 89 99 112 73 57 74 94 357 181 139 129 187 207 155 177 215 218 117 114 39 189 271 65 9 338
115 98 85 75 71 71 66 73 82 97 103 155 152 157 164 147 128 102 140 160 117 158 100 91 115 115 287 270 181 155 141 182 207 220 249 284 247 268 84 184 266 21 348 331
147 147 103 57 49 49 45 50 55 77 101 162 173 152 143 152 168 149 149 118 161 82 93 144 150 190 183 245 244 199 178 167 183 190 224 261 206 194 204 286 325 333 330 328
174 183 229 312 338 349 352 353 3 80 110 155 186 191 191 179 156 156 163 153 149 156 109 162 136 175 180 209 243 197 224 205 186 205 218 243 214 248 247 308 310 320 326 324
232 247 266 295 325 339 338 316 222 178 153 141 190 209 216 210 202 194 163 176 157 153 122 144 130 225 155 196 228 225 224 195 227 195 239 256 272 280 295 302 305 309 311 311
229 226 205 200 302 345 358 36 76 159 137 125 160 173 179 205 216 211 210 163 154 138 135 167 206 252 201 233 277 231 225 168 203 262 271 274 277 274 292 302 306 306 306 301
214 207 209 217 255 345 11 78 86 113 81 131 134 172 232 243 216 194 182 177 176 144 147 171 219 231 207 232 283 250 212 222 210 225 234 240 261 285 294 297 298 301 301 302
207 208 217 218 213 203 46 114 150 160 140 114 100 105 108 77 154 184 194 202 212 213 189 204 229 223 212 249 246 238 231 224 228 236 254 269 285 295 298 300 302 302 302 305
218 215 218 220 221 201 185 165 157 158 152 144 104 169 170 155 167 177 188 206 202 205 218 233 223 208 206 238 241 239 228 233 240 248 265 276 285 284 294 298 299 304 312 317
214 217 224 229 228 212 208 192 167 160 176 114 140 147 204 175 164 138 173 180 198 213 247 249 215 222 233 256 235 231 221 253 262 266 269 264 278 300 318 330 332 327 327 325
198 199 211 201 203 208 213 202 187 191 197 167 185 190 187 163 153 146 166 179 198 235 239 227 230 191 226 238 252 244 251 254 274 300 282 267 283 6 349 339 334 326 322 320
182 184 182 195 183 169 148 113 149 187 205 203 225 169 151 152 161 171 148 174 218 237 221 290 230 253 256 255 253 255 251 255 282 264 152 1 344 339 332 328 324 319 316 313
174 189 189 166 159 159 158 126 143 176 250 208 195 188 144 182 151 165 193 166 163 241 193 237 247 266 244 247 229 228 212 202 163 132 10 340 330 327 324 323 321 317 313 310
181 171 139 152 181 159 108 179 299 211 220 181 164 165 150 151 163 126 169 156 161 242 126 231 254 252 225 186 167 148 144 140 134 340 324 322 321 318 315 314 313 311 309 309
154 182 163 167 177 64 192 199 220 237 178 174 157 137 156 142 166 96 143 165 213 134 203 237 237 250 195 181 164 156 158 179 279 304 312 315 317 316 314 312 312 312 312 314
183 165 215 187 200 241 200 198 191 175 165 155 145 125 140 140 138 142 158 99 145 219 238 236 243 235 185 176 174 181 205 286 307 310 316 317 315 314 314 312 313 313 313 313
188 180 218 211 217 218 220 202 154 149 156 150 124 100 140 122 119 170 107 133 237 220 230 229 267 192 179 184 192 212 274 309 313 309 309 310 312 312 314 313 312 311 313 312
213 215 184 206 171 212 196 193 173 159 159 150 137 123 135 204 140 156 211 183 219 233 219 236 206 181 188 196 222 278 307 298 296 300 305 308 309 310 312 314 315 315 314 314
212 212 212 197 205 193 200 189 181 170 164 182 151 170 205 110 135 230 195 213 215 223 220 198 192 196 205 229 275 289 284 291 297 302 305 306 309 313 317 319 319 320 317 316
Wind_Speed_850mb
50 48 55 51 54 47 30 15 6 9 8 13 7 4 4 3 6 11 6 10 8 2 4 10 8 8 3 5 2 8 9 5 8 14 3 6 25 19 17 10 9 7 5 13
55 53 51 44 44 28 13 13 11 13 8 7 6 4 5 10 10 12 9 8 4 2 8 10 5 2 3 4 4 5 1 6 9 7 5 2 16 18 30 6 3 19 13 11
54 45 36 25 35 26 21 10 4 12 22 16 10 7 5 6 11 9 11 6 4 3 9 13 9 9 3 5 8 11 13 4 7 5 6 5 15 21 26 27 15 24 26 41
46 37 28 25 29 21 9 9 6 6 5 12 9 5 4 5 5 8 13 7 10 6 7 5 8 8 7 7 4 5 1 6 2 4 8 10 5 6 20 32 39 22 38 40
35 26 15 15 9 3 3 9 13 14 10 2 5 10 6 5 3 6 6 9 7 11 8 7 5 3 4 5 6 5 7 9 1 4 2 4 8 23 12 18 27 31 42 46
24 23 19 18 12 8 13 25 30 12 7 3 3 2 4 5 7 13 9 5 5 12 9 5 2 5 2 5 3 3 3 2 7 5 4 6 12 25 27 25 24 23 29 42
25 27 23 22 25 22 25 25 17 12 5 2 5 5 5 8 7 8 5 6 4 2 5 4 5 6 3 3 11 7 2 2 5 2 2 10 7 2 9 21 21 26 32 35
22 25 30 30 27 21 12 17 12 10 8 9 7 11 9 10 9 8 6 5 5 2 5 3 5 5 6 7 2 15 18 4 5 5 6 16 21 3 7 12 17 7 12 22
18 21 23 26 27 27 20 21 17 12 27 11 18 10 8 6 5 4 3 9 11 8 7 5 3 2 2 0 6 7 17 10 3 6 7 13 11 4 4 2 17 11 23 33
13 14 16 18 19 21 22 24 16 12 14 20 25 6 8 11 7 5 5 7 6 4 3 4 2 2 0 4 6 9 12 10 18 12 7 15 13 19 5 7 7 15 27 33
9 7 4 6 8 9 11 14 14 10 9 28 17 15 11 12 9 6 15 9 2 3 4 3 4 3 5 3 2 7 11 13 9 10 9 17 17 7 11 2 31 48 41 33
6 4 2 4 6 7 7 3 1 3 7 11 16 16 13 13 12 12 20 4 8 10 7 3 5 5 4 3 5 7 8 9 5 16 12 11 17 12 12 40 37 36 40 37
12 10 7 5 4 8 10 7 7 9 9 7 8 10 16 19 16 14 10 10 11 9 5 9 3 6 7 8 11 6 12 17 9 6 16 38 42 37 50 56 34 36 38 46
16 12 8 5 2 7 11 11 6 10 9 8 4 7 6 8 19 20 17 9 18 19 11 4 3 5 14 5 7 9 10 10 6 13 35 50 59 45 27 39 48 49 57 45
13 12 12 7 3 4 7 8 10 6 4 6 10 8 9 10 10 20 16 17 17 9 3 4 6 7 6 7 5 18 29 16 16 17 35 27 28 38 47 63 65 61 43 54
17 15 12 10 8 3 3 6 8 9 5 4 3 3 3 7 11 18 22 20 17 13 10 9 10 10 7 6 8 22 40 56 64 35 35 36 45 58 53 41 36 44 53 54
23 18 16 15 12 11 6 6 10 6 12 7 4 3 4 9 15 15 14 15 10 13 8 10 8 11 16 6 10 18 35 44 49 50 45 43 45 25 43 56 54 48 37 34
28 23 21 16 16 13 14 15 15 12 6 6 3 2 4 15 9 7 11 10 14 13 8 5 7 7 8 12 33 26 22 17 28 31 35 37 42 47 19 19 24 29 35 41
24 25 22 16 16 14 14 25 25 19 6 9 7 7 6 19 9 8 12 9 5 6 7 5 5 7 14 21 33 28 25 18 17 37 39 22 5 11 18 26 34 41 49 55
27 22 11 11 14 15 14 10 11 16 11 10 9 11 7 14 14 11 10 5 4 4 2 4 6 11 56 59 47 43 34 31 40 14 9 3 11 22 32 40 46 53 60 66
27 14 10 15 20 13 8 8 7 9 5 14 14 25 10 18 8 8 11 4 3 3 3 4 5 9 12 15 13 20 17 18 15 7 5 15 25 36 45 54 58 61 65 70
19 10 16 16 9 5 6 2 1 8 10 15 15 14 11 14 12 8 8 5 3 9 2 3 7 9 16 13 18 25 25 17 8 4 13 23 32 41 50 59 62 61 62 64
24 11 10 8 4 4 13 13 7 5 21 27 21 11 14 12 9 10 4 8 8 6 3 8 11 9 18 28 32 25 17 8 7 16 25 33 42 50 59 63 59 61 63 61
13 15 7 10 6 12 10 7 7 13 18 52 44 19 9 9 8 6 7 3 1 3 7 13 6 22 33 35 29 19 11 12 22 28 35 47 55 59 58 58 60 62 62 61
13 13 11 14 16 9 7 15 10 12 46 62 26 16 8 4 6 3 8 4 10 12 10 6 11 20 44 40 28 17 14 25 33 39 49 56 60 59 58 55 55 57 58 58
15 19 5 11 7 9 16 25 18 35 61 29 9 9 6 8 8 9 18 10 15 7 8 19 14 32 41 33 20 18 32 40 42 48 54 55 52 51 50 49 50 50 50 49
18 18 45 33 9 16 28 38 36 55 48 6 9 12 15 10 4 8 10 11 7 15 19 15 23 26 29 25 25 38 42 45 47 51 50 46 43 42 43 45 43 41 40 42
Wind_Direction_850mb
110 117 123 132 138 138 134 90 67 130 66 54 36 69 52 9 34 42 75 94 44 176 113 68 85 94 39 351 124 88 9 72 165 185 46 301 221 211 187 198 187 242 297 254
106 115 124 127 134 138 123 84 86 41 6 107 90 19 40 51 23 27 36 70 19 338 85 104 122 132 41 29 46 116 42 162 144 168 218 218 214 206 215 196 123 210 210 255
102 107 102 112 129 98 91 102 92 38 58 70 110 137 41 84 44 51 46 79 30 41 65 28 121 98 82 22 36 171 125 51 23 278 21 327 202 200 212 209 221 238 234 265
97 90 94 76 132 104 27 67 77 80 61 32 77 70 108 86 58 69 38 72 59 42 89 58 63 91 119 72 61 267 270 133 134 84 5 330 338 198 211 216 233 240 261 267
95 98 79 82 129 186 129 116 134 86 90 40 64 9 29 82 104 18 25 95 64 49 74 57 118 96 69 64 66 3 356 142 272 122 246 76 315 288 260 251 260 263 268 274
70 69 67 59 65 89 108 112 121 112 28 32 75 39 163 95 109 29 43 63 60 67 67 53 346 260 149 136 122 92 47 126 149 170 319 211 265 233 229 238 224 231 249 261
66 61 69 77 77 83 119 117 118 105 109 36 98 137 102 101 54 113 88 72 48 71 23 21 100 100 346 218 237 231 117 94 10 111 137 235 231 317 266 235 251 235 260 269
82 78 74 78 81 77 90 100 101 109 111 118 119 136 108 97 61 74 93 88 125 347 57 81 20 11 54 350 271 212 210 181 108 198 224 309 288 40 159 206 265 57 295 322
94 93 86 80 78 72 79 96 103 103 123 218 146 143 166 147 130 87 108 89 99 112 73 57 74 94 357 181 139 129 187 207 155 177 215 218 117 114 39 189 271 65 9 338
115 98 85 75 71 71 66 73 82 97 103 155 152 157 164 147 128 102 140 160 117 158 100 91 115 115 287 270 181 155 141 182 207 220 249 284 247 268 84 184 266 21 348 331
147 147 103 57 49 49 45 50 55 77 101 162 173 152 143 152 168 149 149 118 161 82 93 144 150 190 183 245 244 199 178 167 183 190 224 261 206 194 204 286 325 333 330 328
174 183 229 312 338 349 352 353 3 80 110 155 186 191 191 179 156 156 163 153 149 156 109 162 136 175 180 209 243 197 224 205 186 205 218 243 214 248 247 308 310 320 326 324
232 247 266 295 325 339 338 316 222 178 153 141 190 209 216 210 202 194 163 176 157 153 122 144 130 225 155 196 228 225 224 195 227 195 239 256 272 280 295 302 305 309 311 311
229 226 205 200 302 345 358 36 76 159 137 125 160 173 179 205 216 211 210 163 154 138 135 167 206 252 201 233 277 231 225 168 203 262 271 274 277 274 292 302 306 306 306 301
214 207 209 217 255 345 11 78 86 113 81 131 134 172 232 243 216 194 182 177 176 144 147 171 219 231 207 232 283 250 212 222 210 225 234 240 261 285 294 297 298 301 301 302
207 208 217 218 213 203 46 114 150 160 140 114 100 105 108 77 154 184 194 202 212 213 189 204 229 223 212 249 246 238 231 224 228 236 254 269 285 295 298 300 302 302 302 305
218 215 218 220 221 201 185 165 157 158 152 144 104 169 170 155 167 177 188 206 202 205 218 233 223 208 206 238 241 239 228 233 240 248 265 276 285 284 294 298 299 304 312 317
214 217 224 229 228 212 208 192 167 160 176 114 140 147 204 175 164 138 173 180 198 213 247 249 215 222 233 256 235 231 221 253 262 266 269 264 278 300 318 330 332 327 327 325
198 199 211 201 203 208 213 202 187 191 197 167 185 190 187 163 153 146 166 179 198 235 239 227 230 191 226 238 252 244 251 254 274 300 282 267 283 6 349 339 334 326 322 320
182 184 182 195 183 169 148 113 149 187 205 203 225 169 151 152 161 171 148 174 218 237 221 290 230 253 256 255 253 255 251 255 282 264 152 1 344 339 332 328 324 319 316 313
174 189 189 166 159 159 158 126 143 176 250 208 195 188 144 182 151 165 193 166 163 241 193 237 247 266 244 247 229 228 212 202 163 132 10 340 330 327 324 323 321 317 313 310
181 171 139 152 181 159 108 179 299 211 220 181 164 165 150 151 163 126 169 156 161 242 126 231 254 252 225 186 167 148 144 140 134 340 324 322 321 318 315 314 313 311 309 309
154 182 163 167 177 64 192 199 220 237 178 174 157 137 156 142 166 96 143 165 213 134 203 237 237 250 195 181 164 156 158 179 279 304 312 315 317 316 314 312 312 312 312 314
183 165 215 187 200 241 200 198 191 175 165 155 145 125 140 140 138 142 158 99 145 219 238 236 243 235 185 176 174 181 205 286 307 310 316 317 315 314 314 312 313 313 313 313
188 180 218 211 217 218 220 202 154 149 156 150 124 100 140 122 119 170 107 133 237 220 230 229 267 192 179 184 192 212 274 309 313 309 309 310 312 312 314 313 312 311 313 312
213 215 184 206 171 212 196 193 173 159 159 150 137 123 135 204 140 156 211 183 219 233 219 236 206 181 188 196 222 278 307 298 296 300 305 308 309 310 312 314 315 315 314 314
212 212 212 197 205 193 200 189 181 170 164 182 151 170 205 110 135 230 195 213 215 223 220 198 192 196 205 229 275 289 284 291 297 302 305 306 309 313 317 319 319 320 317 316